N2NET Weather Reports


Display with metric or nautical units.
time (UTC)temp
F
wind
direction
speed
MPH
gust
MPH
rain 1hr
in
rain 24hr
in
rain mn
in
humidity
%
barometer
mb
20260503021553 37 0 0.0 2.0 0.00 0.11 0.08 69 1012.1
20260503020052 39 0 0.0 2.0 0.00 0.11 0.08 66 1012.0
20260503014625 40 225 1.0 3.0 0.00 0.11 0.08 63 1011.9
20260503013052 41 0 1.0 3.0 0.00 0.11 0.08 62 1012.0
20260503011620 43 310 2.0 6.0 0.00 0.11 0.08 55 1012.0
20260503010056 43 225 0.0 4.0 0.00 0.11 0.08 55 1011.8
20260503004549 44 349 3.0 9.0 0.00 0.11 0.08 51 1011.6
20260503003053 44 321 1.0 6.0 0.00 0.11 0.08 50 1011.4
20260503001549 45 0 0.0 3.0 0.00 0.11 0.08 50 1011.4
20260503000049 46 323 3.0 7.0 0.00 0.11 0.08 44 1011.2
20260502234608 46 312 1.0 4.0 0.00 0.11 0.08 47 1010.8
20260502233052 47 0 1.0 10.0 0.00 0.11 0.08 44 1010.8
20260502231550 48 333 6.0 11.0 0.00 0.11 0.08 40 1010.6
20260502230058 49 284 4.0 12.0 0.00 0.11 0.08 39 1010.6
20260502224552 50 297 8.0 14.0 0.00 0.11 0.08 38 1010.6
20260502223059 50 270 8.0 16.0 0.00 0.11 0.08 38 1010.4
20260502221551 50 304 9.0 17.0 0.00 0.11 0.08 38 1010.4
20260502220100 50 300 5.0 18.0 0.00 0.11 0.08 39 1010.3
20260502214550 51 273 5.0 17.0 0.00 0.11 0.08 39 1010.4
20260502213054 51 237 4.0 19.0 0.00 0.11 0.08 42 1010.1
20260502211555 52 347 8.0 18.0 0.00 0.11 0.08 39 1010.0
20260502210056 52 312 10.0 15.0 0.00 0.11 0.08 37 1010.0
20260502204559 53 311 4.0 15.0 0.00 0.11 0.08 36 1009.7
20260502203115 52 295 10.0 15.0 0.00 0.11 0.08 37 1009.8
20260502201604 52 323 10.0 18.0 0.00 0.11 0.08 37 1010.0
20260502200059 53 302 6.0 17.0 0.00 0.11 0.08 37 1009.9
20260502194558 52 347 6.0 11.0 0.00 0.11 0.08 38 1009.9
20260502193113 53 308 8.0 17.0 0.00 0.11 0.08 37 1010.2
20260502191553 55 338 7.0 17.0 0.00 0.11 0.08 37 1010.3
20260502190052 53 319 5.0 11.0 0.00 0.11 0.08 36 1010.4
20260502184556 52 295 6.0 13.0 0.00 0.11 0.08 40 1010.6
20260502183056 52 301 6.0 10.0 0.00 0.11 0.08 39 1010.6
20260502181555 52 316 3.0 9.0 0.00 0.11 0.08 41 1010.5
20260502180105 52 248 4.0 12.0 0.00 0.11 0.08 40 1010.2
20260502163059 53 301 2.0 14.0 0.00 0.11 0.08 44 1011.0
20260502161558 51 291 5.0 12.0 0.00 0.11 0.08 45 1011.0
20260502151611 48 328 6.0 11.0 0.00 0.11 0.08 52 1011.6
20260502123051 43 307 3.0 10.0 0.00 0.11 0.08 24 1011.9
20260502121551 44 283 4.0 10.0 0.01 0.11 0.08 11 1011.8
20260502114602 43 312 4.0 8.0 0.01 0.11 0.08 100 1011.6
20260502113113 42 246 2.0 4.0 0.01 0.11 0.08 100 1011.4
20260502111602 41 242 0.0 3.0 0.00 0.10 0.07 100 1011.2
20260502110054 41 0 0.0 3.0 0.00 0.10 0.07 100 1011.3
20260502104601 41 0 0.0 1.0 0.00 0.10 0.07 100 1010.9
20260502103056 41 0 0.0 3.0 0.00 0.10 0.07 100 1010.8
20260502101609 41 0 0.0 1.0 0.00 0.10 0.07 100 1010.5
20260502090107 42 0 0.0 0.0 0.00 0.10 0.07 100 1010.2
20260502070106 43 191 0.0 1.0 0.05 0.09 0.06 100 1010.7
20260502064554 43 0 0.0 0.0 0.06 0.09 0.06 100 1010.6
20260502063052 43 0 0.0 1.0 0.03 0.06 0.03 100 1010.9
20260502061551 43 0 0.0 0.0 0.02 0.05 0.02 100 1010.7
20260502060058 44 0 0.0 0.0 0.01 0.04 0.01 100 1010.7
20260502054605 44 0 0.0 0.0 0.00 0.03 0.00 100 1010.8
20260502053052 44 0 0.0 0.0 0.00 0.03 0.00 100 1010.7
20260502051554 44 0 0.0 0.0 0.00 0.03 0.00 100 1010.8
20260502050051 44 0 0.0 0.0 0.00 0.03 0.00 100 1010.9
20260502044556 44 0 0.0 0.0 0.00 0.03 0.00 100 1011.0
20260502043113 45 0 0.0 0.0 0.01 0.03 0.00 100 1011.0
20260502041624 45 0 0.0 1.0 0.01 0.03 0.00 100 1011.2
20260502040100 45 218 0.0 1.0 0.03 0.03 0.00 100 1011.2
20260502034557 45 0 0.0 0.0 0.03 0.03 0.03 100 1011.1
20260502033057 45 0 0.0 0.0 0.02 0.02 0.02 7 1011.2
20260502031635 46 0 0.0 1.0 0.02 0.02 0.02 48 1011.3
20260502030117 46 0 0.0 2.0 0.00 0.00 0.00 72 1011.4
20260502024559 46 0 0.0 2.0 0.00 0.00 0.00 74 1011.2
20260502023127 46 0 0.0 0.0 0.00 0.00 0.00 75 1011.1